www.pogodaiklimat.ru

Погода и климат >> Архив погоды >> Япония >> Хамамацу


ПОГОДА в Хамамацу

  • Прогноз погоды в Хамамацу
  • Монитор погоды в Хамамацу

АРХИВ ПОГОДЫ в Хамамацу

Время (UTC), дата Ветер
(напр.,м/с)
 
Видим.   Явления Облачность Т
(С)
Тd
(С)
f
(%)
Тe
(С)
Тes
(С)
Комфортность P
(гПа)
Po
(гПа)
Тmin
(С)
Tmax
(С)
R
(мм)
R24
(мм)
S
(см)
19 11.09 З 3 20 км н/о +26.5 +21.3 73 +34 +34 очень
душно
1009.3 1003.9
20 11.09 З 4 20 км н/о +26.1 +20.7 72 +33 +33 очень
душно
1009.4 1004.0
21 11.09 СЗ 2 20 км н/о +26.3 +20.2 69 +32 +32 очень
душно
1009.9 1004.5
23 11.09 СЗ 4 20 км н/о +27.6 +20.7 66 +34 +34 очень
душно
1011.0 1005.6
00 12.09 В 4 20 км н/о +28.8 +22.8 70 +38 +38 очень
душно
1011.6 1006.2 +25.7
01 12.09 ЮВ 6 20 км н/о +28.6 +22.1 68 +37 +37 очень
душно
1012.0 1006.6
02 12.09 ЮВ 8 20 км н/о +29.5 +23.7 71 +40 +40 очень
душно
1012.1 1006.7
03 12.09 ЮВ 8 20 км н/о +29.3 +23.0 69 +39 +39 очень
душно
1012.2 1006.8
04 12.09 ЮВ 8 20 км н/о +28.0 +22.0 70 +36 +36 очень
душно
1012.0 1006.6
05 12.09 ЮВ 6 20 км н/о +28.4 +21.7 67 +36 +36 очень
душно
1011.8 1006.4
06 12.09 ЮВ 6 20 км н/о +28.2 +21.3 66 +36 +36 очень
душно
1011.6 1006.2
07 12.09 ЮВ 7 20 км н/о +27.1 +21.2 70 +34 +34 очень
душно
1011.9 1006.5
08 12.09 В 6 20 км н/о +26.5 +20.6 70 +33 +33 очень
душно
1012.4 1007.0
09 12.09 В 6 20 км н/о +26.0 +20.3 71 +32 +32 очень
душно
1012.8 1007.4
10 12.09 В 5 20 км н/о +25.9 +20.0 70 +32 +32 очень
душно
1013.4 1008.0
11 12.09 В 4 20 км н/о +25.7 +19.6 69 +31 +31 очень
душно
1014.2 1008.7
12 12.09 СВ 4 20 км н/о +24.8 +20.1 75 +30 +30 душно 1014.4 1008.9 +29.9
13 12.09 В 4 20 км н/о +24.5 +20.0 76 +30 +30 очень
душно
1014.5 1009.0
15 12.09 В 4 20 км н/о +24.4 +18.8 71 +29 +29 душно 1013.6 1008.1
16 12.09 В 4 20 км н/о +24.0 +18.4 71 +28 +28 душно 1013.4 1007.9
18 12.09 В 4 20 км н/о +24.1 +17.4 66 +28 +28 душно 1013.3 1007.8
19 12.09 В 5 20 км н/о +24.0 +16.5 63 +27 +27 жарко 1012.9 1007.4
20 12.09 В 4 20 км н/о +23.9 +16.4 63 +27 +27 жарко 1013.5 1008.0
21 12.09 В 4 20 км н/о +23.7 +16.3 63 +27 +27 жарко 1013.9 1008.4
22 12.09 В 5 20 км н/о +23.9 +16.7 64 +27 +27 жарко 1014.2 1008.7
23 12.09 В 5 20 км н/о +24.1 +16.9 64 +28 +28 душно 1015.0 1009.5
01 13.09 В 5 20 км н/о +24.1 +16.4 62 +28 +28 душно 1015.1 1009.6
02 13.09 В 5 20 км н/о +24.7 +16.2 59 +28 +28 душно 1015.1 1009.6
03 13.09 В 5 20 км н/о +24.8 +16.0 58 +28 +28 жарко 1014.5 1009.0
04 13.09 В 5 20 км слаб. дождь н/о +24.8 +16.5 60 +28 +28 жарко 1013.7 1008.2
05 13.09 В 5 20 км слаб. дождь н/о +24.3 +16.6 62 +28 +28 душно 1014.3 1008.8
06 13.09 В 5 20 км в посл. час дождь н/о +24.7 +16.7 61 +28 +28 душно 1013.8 1008.3 0.0
08 13.09 В 5 20 км н/о +24.7 +16.7 61 +28 +28 душно 1013.8 1008.3
09 13.09 В 5 20 км н/о +24.1 +16.4 62 +28 +28 душно 1013.9 1008.4
10 13.09 В 4 20 км н/о +23.5 +16.1 63 +27 +27 душно 1014.1 1008.6
11 13.09 В 4 20 км н/о +23.1 +16.4 66 +28 +28 душно 1015.1 1009.6
13 13.09 В 4 20 км н/о +22.6 +16.9 70 +27 +27 душно 1015.8 1010.3
14 13.09 В 4 20 км н/о +22.2 +16.3 69 +26 +26 душно 1015.6 1010.1
15 13.09 СВ 3 20 км н/о +22.2 +15.8 67 +26 +26 душно 1014.5 1009.0
16 13.09 С 3 20 км н/о +21.5 +15.8 70 +25 +25 комфорт 1013.8 1008.3
17 13.09 СВ 4 20 км н/о +21.8 +15.4 67 +25 +25 комфорт 1013.6 1008.1
18 13.09 СВ 3 20 км н/о +22.3 +15.4 65 +26 +26 жарко 1013.2 1007.7
19 13.09 СВ 2 20 км н/о +22.9 +15.5 63 +27 +27 душно 1013.2 1007.7
21 13.09 СВ 2 20 км н/о +22.6 +15.9 66 +27 +27 душно 1013.5 1008.0
00 14.09 В 5 20 км н/о +26.5 +16.2 53 +30 +30 душно 1013.4 1008.0 +21.4
01 14.09 В 5 20 км н/о +28.2 +17.4 52 +32 +32 душно 1013.2 1007.8
02 14.09 В 5 20 км н/о +28.7 +17.3 50 +33 +33 очень
душно
1012.9 1007.5
03 14.09 В 6 20 км н/о +29.6 +17.8 49 +34 +34 очень
душно
1012.4 1007.0
04 14.09 В 5 20 км н/о +29.6 +17.4 48 +34 +34 очень
душно
1011.7 1006.3
05 14.09 В 4 20 км н/о +29.6 +17.8 49 +34 +34 очень
душно
1011.3 1005.9
06 14.09 ЮВ 6 20 км н/о +28.6 +18.4 54 +33 +33 очень
душно
1010.8 1005.4
07 14.09 В 6 20 км н/о +28.0 +18.1 55 +33 +33 очень
душно
1011.2 1005.8
08 14.09 В 5 20 км н/о +27.2 +18.8 60 +32 +32 очень
душно
1011.3 1005.9
09 14.09 В 4 20 км н/о +26.7 +18.6 61 +32 +32 очень
душно
1011.6 1006.2
10 14.09 В 4 20 км н/о +26.3 +18.5 62 +31 +31 душно 1012.0 1006.6
11 14.09 В 4 20 км н/о +25.8 +18.2 63 +30 +30 душно 1012.5 1007.1
13 14.09 В 3 20 км н/о +25.4 +18.6 66 +30 +30 душно 1012.2 1006.7
14 14.09 В 3 20 км н/о +25.1 +18.6 67 +30 +30 душно 1011.9 1006.4
15 14.09 СВ 4 20 км н/о +24.9 +17.9 65 +29 +29 душно 1011.3 1005.8
16 14.09 СВ 3 20 км н/о +24.3 +17.6 66 +28 +28 душно 1010.9 1005.4
17 14.09 СВ 2 20 км н/о +23.9 +17.6 68 +28 +28 душно 1010.7 1005.2
18 14.09 СВ 2 20 км н/о +23.2 +18.1 73 +29 +29 душно 1010.5 1005.0
19 14.09 СВ 2 20 км н/о +23.2 +17.9 72 +29 +29 душно 1010.5 1005.0
20 14.09 СВ 2 20 км н/о +22.7 +18.1 75 +28 +28 душно 1010.3 1004.8
21 14.09 С 2 20 км н/о +22.5 +18.1 76 +28 +28 душно 1010.0 1004.5
22 14.09 В 2 20 км н/о +23.2 +18.3 74 +29 +29 душно 1009.9 1004.4
23 14.09 СЗ 2 20 км н/о +25.9 +18.3 63 +31 +31 очень
душно
1009.4 1004.0
00 15.09 СВ 2 20 км н/о +28.0 +17.2 52 +32 +32 душно 1009.1 1003.7 +22.5
01 15.09 ЮВ 2 20 км н/о +28.9 +17.8 51 +33 +33 очень
душно
1008.7 1003.3
02 15.09 ЮВ 2 20 км н/о +30.7 +18.1 47 +35 +35 очень
душно
1007.9 1002.6
03 15.09 ЮЗ 5 20 км н/о +30.5 +19.5 52 +36 +36 очень
душно
1007.1 1001.8
04 15.09 Ю 4 20 км н/о +30.9 +19.3 50 +37 +37 очень
душно
1006.3 1001.0
05 15.09 ЮЗ 3 20 км н/о +31.3 +19.7 50 +37 +37 очень
душно
1005.4 1000.1
06 15.09 ЮЗ 4 20 км н/о +30.9 +20.2 53 +37 +37 очень
душно
1005.0 999.7
07 15.09 Ю 4 20 км н/о +30.2 +20.7 57 +37 +37 очень
душно
1005.0 999.7
08 15.09 ЮЗ 2 20 км н/о +29.7 +20.0 56 +36 +36 очень
душно
1005.0 999.7
09 15.09 ЮЗ 2 20 км н/о +28.0 +21.1 66 +35 +35 очень
душно
1005.2 999.8
10 15.09 ЮЗ 1 20 км н/о +27.3 +20.9 68 +34 +34 очень
душно
1005.5 1000.1
11 15.09 СЗ 2 20 км н/о +28.1 +20.9 65 +35 +35 очень
душно
1005.5 1000.1
12 15.09 С 2 20 км н/о +27.2 +20.8 68 +34 +34 очень
душно
1005.3 999.9 +32.3
13 15.09 С 2 20 км н/о +27.1 +20.7 68 +34 +34 очень
душно
1004.6 999.2
14 15.09 СВ 2 20 км н/о +26.4 +20.5 70 +33 +33 очень
душно
1004.4 999.0
16 15.09 С 2 20 км н/о +25.9 +20.7 73 +32 +32 очень
душно
1003.1 997.7
17 15.09 С 2 20 км н/о +26.2 +20.8 72 +33 +33 очень
душно
1002.7 997.3
18 15.09 С 1 20 км н/о +25.8 +20.8 74 +32 +32 очень
душно
1001.9 996.5
19 15.09 СВ 1 20 км н/о +25.5 +20.5 74 +32 +32 очень
душно
1001.3 995.9
21 15.09 З 1 20 км н/о +25.7 +20.9 75 +32 +32 очень
душно
1001.2 995.8
22 15.09 Ю 2 20 км н/о +26.5 +21.5 74 +34 +34 очень
душно
1001.0 995.6
23 15.09 ЮЗ 2 20 км н/о +28.8 +21.1 63 +36 +36 очень
душно
1000.9 995.6
00 16.09 З 2 20 км н/о +29.9 +20.7 58 +37 +37 очень
душно
1000.3 995.0 +25.1
01 16.09 ЮЗ 2 20 км н/о +31.5 +21.4 55 +39 +39 очень
душно
999.5 994.2
03 16.09 З 3 20 км н/о +33.8 +21.9 50 +42 +42 опасность
перегрева
998.3 993.1
04 16.09 З 3 20 км н/о +34.9 +22.6 49 +44 +44 опасность
перегрева
997.9 992.7
05 16.09 З 5 20 км н/о +35.5 +21.7 45 +44 +44 опасность
перегрева
997.8 992.6
07 16.09 В 4 20 км н/о +32.0 +21.8 55 +41 +41 опасность
перегрева
998.4 993.1
08 16.09 В 4 20 км н/о +31.8 +21.6 55 +40 +40 очень
душно
998.8 993.5
09 16.09 СВ 2 20 км н/о +30.9 +22.2 60 +40 +40 очень
душно
999.6 994.3
10 16.09 СВ 1 20 км н/о +30.2 +22.6 64 +40 +40 очень
душно
1000.7 995.4
11 16.09 В 2 20 км н/о +29.3 +22.8 68 +39 +39 очень
душно
1001.5 996.2
12 16.09 СВ 2 20 км н/о +28.6 +23.3 73 +39 +39 очень
душно
1002.2 996.9 +35.6
13 16.09 В 2 16 км н/о +27.0 +24.1 84 +37 +37 очень
душно
1003.0 997.6
14 16.09 СВ 2 20 км н/о +26.7 +23.8 84 +37 +37 очень
душно
1003.1 997.7
15 16.09 В 2 20 км н/о +26.5 +23.8 85 +36 +36 очень
душно
1003.7 998.3
16 16.09 СЗ 2 20 км н/о +26.5 +23.6 84 +36 +36 очень
душно
1004.2 998.8
17 16.09 СЗ 1 20 км н/о +26.6 +23.3 82 +36 +36 очень
душно
1004.5 999.1
18 16.09 С 1 20 км н/о +26.7 +23.4 82 +36 +36 очень
душно
1005.2 999.8
19 16.09 СЗ 2 20 км н/о +26.6 +23.5 83 +36 +36 очень
душно
1005.5 1000.1
20 16.09 СЗ 2 20 км н/о +26.5 +23.6 84 +36 +36 очень
душно
1005.9 1000.5
21 16.09 СЗ 2 20 км н/о +26.5 +23.4 83 +36 +36 очень
душно
1006.3 1000.9
22 16.09 В 2 20 км н/о +26.7 +23.4 82 +36 +36 очень
душно
1006.7 1001.3
23 16.09 СВ 2 20 км н/о +27.8 +20.9 66 +35 +35 очень
душно
1007.6 1002.2
01 17.09 Ю 2 20 км в посл. час дождь н/о +28.1 +23.0 74 +38 +38 очень
душно
1008.5 1003.1
02 17.09 ЮЗ 2 20 км н/о +28.6 +22.8 71 +38 +38 очень
душно
1008.1 1002.7
03 17.09 ЮЗ 4 20 км слаб. дождь н/о +28.0 +23.2 75 +38 +38 очень
душно
1008.0 1002.6
04 17.09 ЮЗ 2 20 км слаб. дождь н/о +27.5 +24.0 81 +38 +38 очень
душно
1007.8 1002.4
05 17.09 ЮЗ 2 18 км в посл. час дождь н/о +28.8 +24.2 76 +40 +40 очень
душно
1007.6 1002.2
06 17.09 Ю 5 20 км {дождь} н/о +29.1 +23.5 72 +40 +40 очень
душно
1007.7 1002.3 0.0
07 17.09 ЮЗ 5 20 км н/о +28.0 +22.9 74 +37 +37 очень
душно
1008.1 1002.7
08 17.09 ЮЗ 4 20 км н/о +27.6 +23.0 76 +37 +37 очень
душно
1008.7 1003.3
09 17.09 ЮЗ 3 18 км н/о +26.5 +23.0 81 +35 +35 очень
душно
1009.4 1004.0
10 17.09 ЮЗ 2 20 км н/о +26.5 +23.0 81 +35 +35 очень
душно
1009.8 1004.4
11 17.09 ЮЗ 1 16 км н/о +26.4 +23.3 83 +36 +36 очень
душно
1010.1 1004.7
12 17.09 СЗ 1 17 км н/о +27.0 +23.5 81 +37 +37 очень
душно
1010.1 1004.7 +29.5 0.0
13 17.09 С 2 18 км слаб. дождь н/о +26.6 +23.3 82 +36 +36 очень
душно
1010.5 1005.1
14 17.09 В 3 20 км в посл. час дождь н/о +26.5 +21.5 74 +34 +34 очень
душно
1010.6 1005.2
15 17.09 В 3 20 км {дождь} н/о +25.6 +19.7 70 +31 +31 очень
душно
1010.3 1004.9
16 17.09 В 2 20 км н/о +25.2 +19.6 71 +31 +31 очень
душно
1010.1 1004.7
17 17.09 В 2 20 км н/о +24.8 +20.1 75 +30 +30 душно 1010.1 1004.6
18 17.09 В 2 20 км {дождь} н/о +24.8 +19.9 74 +30 +30 душно 1009.8 1004.4 0.0
20 17.09 В 3 20 км н/о +24.9 +18.8 69 +30 +30 душно 1009.4 1004.0
23 17.09 В 3 20 км н/о +25.0 +18.9 69 +30 +30 душно 1010.2 1004.8
00 18.09 ЮВ 3 20 км н/о +24.7 +18.6 69 +29 +29 душно 1011.1 1005.6 +24.6 0.0
01 18.09 ЮВ 2 20 км слаб. дождь н/о +23.6 +18.9 75 +28 +28 душно 1011.1 1005.6
02 18.09 В 3 8000 м слаб. дождь н/о +22.6 +18.8 79 +28 +28 душно 1011.2 1005.7
03 18.09 В 4 20 км слаб. дождь н/о +21.9 +18.1 79 +27 +27 душно 1010.3 1004.8
04 18.09 В 3 10 км слаб. дождь н/о +21.5 +18.9 85 +26 +26 душно 1009.8 1004.3
05 18.09 В 3 7000 м слаб. дождь н/о +21.3 +20.0 92 +26 +26 душно 1009.4 1003.9
06 18.09 ЮВ 3 10 км слаб. дождь н/о +20.9 +19.4 91 +26 +26 душно 1010.0 1004.5 3
07 18.09 СВ 2 20 км слаб. дождь н/о +21.5 +19.6 89 +27 +27 душно 1008.8 1003.3
09 18.09 В 2 20 км слаб. дождь н/о +21.8 +19.4 86 +27 +27 душно 1009.8 1004.3
10 18.09 С 2 20 км в посл. час дождь н/о +21.9 +19.7 87 +27 +27 душно 1010.0 1004.5
11 18.09 ЮЗ 1 9000 м дымка н/о +21.5 +20.5 94 +27 +27 душно 1010.3 1004.8
13 18.09 ЮЗ 1 9000 м дымка н/о +21.7 +20.5 93 +27 +27 душно 1011.2 1005.7
14 18.09 С 2 9000 м дымка н/о +22.0 +20.5 91 +28 +28 душно 1010.3 1004.8
15 18.09 СВ 2 12 км н/о +21.9 +20.2 90 +28 +28 душно 1010.5 1005.0
16 18.09 С 2 15 км н/о +22.0 +19.9 88 +28 +28 душно 1010.3 1004.8
17 18.09 СЗ 2 15 км н/о +21.7 +20.2 91 +27 +27 душно 1010.1 1004.6
18 18.09 С 2 14 км н/о +21.7 +20.2 91 +27 +27 душно 1010.4 1004.9
19 18.09 С 2 12 км н/о +21.5 +20.0 91 +27 +27 душно 1010.4 1004.9

 

Местоположение метеостанции Хамамацу (Япония): широта 34.72 долгота 137.71 высота над уровнем моря 33 м.

В архиве по умолчанию представлена погода в Хамамацу за последнюю неделю. Архивные данные за месяц целиком и за предыдущие месяцы, начиная с января 2011 года, Вы можете получить, выбрав интересующий диапазон дат из раскрывающегося списка и нажав кнопку "Ввод!".


*Определитесь, кто Вы:
робот инопланетянин человек

Внимание! Время в таблицах - всемирное. Для получения местного времени необходимо прибавить поправку, которая равна 9 ч.

Смотрите также архив погоды в соседних городах и на ближайших метеорологических станциях:

Погода в Омаэдзаки (Япония) (48 км)
Погода в Ирако (Япония) (57 км)
Погода в Сидзуоке (Япония) (69 км)
Погода в Нагоя (Япония) (85 км)
Погода в Ииде (Япония) (89 км)
Погода в Иродзаки (Япония) (105 км)
Погода в Йоккаити (Япония) (106 км)
Погода в Цу (Япония) (110 км)
Погода в Гифу (Япония) (115 км)
Погода на Фудзияме (Япония) (118 км)

Пояснения к столбцам:

Ветер - указаны скорость ветра в м/с - средняя за 10 мин, порывы в срок и между сроками (в фигурных скобках) и направление, откуда дует ветер: С - северный, СВ - северо-восточный, В - восточный, ЮВ - юго-восточный, Ю - южный, ЮЗ - юго-западный, З - западный, СЗ - северо-западный.
Видимость - горизонтальная дальность видимости в метрах или километрах. При видимости от 1 до 10 км при отсутствии осадков обычно наблюдается дымка, при ухудшении видимости до 1 км и менее - туман. В сухую погоду видимость может ухудшаться дымом, пылью или мглою.
Явления - указаны атмосферные явления, наблюдавшиеся в срок или в последний час перед сроком; фигурными скобками обозначены явления, наблюдавшиеся между сроками (за 1-3 часа до срока); квадратными скобками обозначены град или гололедные отложения с указанием их диаметра в мм.
Облачность - указаны через наклонную черту общая и нижняя облачность в баллах и высота нижней границы облаков в метрах; квадратными скобками обозначены формы облаков: Ci - перистые, Cs - перисто-слоистые, Cc - перисто-кучевые, Ac - высококучевые, As - высокослоистые, Sc - слоисто-кучевые, Ns - слоисто-дождевые, Cu - кучевые, Cb - кучево-дождевые. Подробнее классификацию облаков см. в Атласе облаков (PDF).
T - Температура воздуха - температура, измеренная на высоте 2 м над землей.
Td - Температура точки росы - температура, при понижении до которой содержащийся в воздухе водяной пар достигнет насыщения.
f - Относительная влажность воздуха - влажноcть воздуха, измеренная на высоте 2 м над землей.
Te - Эффективная температура - температура, которую ощущает одетый по сезону человек в тени. Характеристика душности погоды. При расчете учитывается влияние влажности воздуха и скорости ветра на теплоощущения человека.
Tes - Эффективная температура на солнце - температура, которую ощущает человек, с поправкой на солнечный нагрев. Характеристика знойности погоды. Зависит от высоты солнца над горизонтом, облачности и скорости ветра. Ночью, в пасмурную погоду, а также при ветре 12 м/с и более поправка равна нулю.
P - Атмосферное давление - приведенное к уровню моря атмосферное давление.
Po - Атмосферное давление - измеренное на уровне метеостанции атмосферное давление.
Tmin - Минимальная температура - минимум температуры воздуха на высоте 2 м над землей.
Tmax - Максимальная температура - максимум температуры воздуха на высоте 2 м над землей.
R - Количество осадков - Количество выпавших осадков за период времени, мм. При наведении курсора мыши на число - период времени, за который выпало указанное количество осадков.
R24 - Количество осадков - Количество выпавших осадков за 24 часа, мм.
S - Снежный покров - Высота снежного покрова, см. При наведении курсора мыши на число - состояние снежного покрова и степень покрытия местности в баллах.